EW7329 Weather Reports


Display with metric or nautical units.
time (UTC)temp
F
wind
direction
speed
MPH
gust
MPH
rain 1hr
in
rain 24hr
in
rain mn
in
humidity
%
barometer
mb
20260507074537 61 146 1.0 2.0 0.00 0.00 0.00 75 1004.5
20260507073034 60 146 0.0 2.0 0.00 0.00 0.00 76 1004.3
20260507071534 59 134 0.0 2.0 0.00 0.00 0.00 78 1004.2
20260507070041 58 126 1.0 3.0 0.00 0.00 0.00 80 1004.0
20260507064528 57 5 0.0 2.0 0.00 0.00 0.00 82 1003.8
20260507063028 57 5 0.0 3.0 0.00 0.00 0.00 82 1003.9
20260507061526 56 344 0.0 2.0 0.00 0.00 0.00 82 1003.9
20260507060030 56 327 0.0 2.0 0.00 0.00 0.00 82 1003.7
20260507054523 55 306 0.0 2.0 0.00 0.00 0.00 82 1003.6
20260507053022 55 306 0.0 1.0 0.00 0.00 0.00 81 1003.5
20260507051520 55 125 0.0 1.0 0.00 0.00 0.00 81 1003.5
20260507050026 55 355 0.0 2.0 0.00 0.00 0.00 80 1003.2
20260507044516 56 355 1.0 3.0 0.00 0.00 0.00 79 1003.0
20260507043014 56 348 0.0 2.0 0.00 0.00 0.00 78 1002.9
20260507041513 56 347 0.0 4.0 0.00 0.00 0.00 77 1002.8
20260507040010 56 344 1.0 3.0 0.00 0.00 0.00 77 1002.8
20260507034510 56 344 0.0 4.0 0.00 0.00 0.00 76 1002.5
20260507033010 57 171 0.0 6.0 0.00 0.00 0.00 77 1002.6
20260507031506 57 144 4.0 7.0 0.00 0.00 0.00 76 1002.2
20260507030005 57 130 3.0 6.0 0.00 0.00 0.00 75 1002.4
20260507024507 58 162 3.0 10.0 0.00 0.00 0.00 74 1002.3
20260507023002 57 134 6.0 10.0 0.00 0.00 0.00 74 1002.2
20260507021601 57 148 1.0 4.0 0.00 0.00 0.00 75 1002.4
20260507014605 58 160 2.0 6.0 0.00 0.00 0.00 76 1002.5
20260507013102 58 184 3.0 7.0 0.00 0.00 0.00 76 1002.4
20260507011558 58 168 5.0 7.0 0.00 0.00 0.00 76 1002.4
20260507010053 58 136 3.0 7.0 0.00 0.00 0.00 75 1002.4
20260507004552 59 168 5.0 10.0 0.00 0.00 0.00 75 1002.4
20260507003050 59 175 3.0 10.0 0.00 0.00 0.00 74 1002.3
20260507001549 59 205 3.0 10.0 0.00 0.00 0.00 74 1002.3
20260507000048 59 213 6.0 12.0 0.00 0.00 0.00 73 1002.4
20260506234553 59 192 5.0 10.0 0.00 0.00 0.00 74 1002.4
20260506233049 59 179 6.0 12.0 0.00 0.00 0.00 75 1002.3
20260506231544 59 189 4.0 9.0 0.00 0.00 0.00 74 1002.5
20260506230035 59 204 2.0 5.0 0.00 0.00 0.00 74 1002.7
20260506224534 59 184 0.0 5.0 0.00 0.00 0.00 74 1002.6
20260506223029 59 242 2.0 5.0 0.00 0.00 0.00 74 1002.4
20260506221527 59 192 2.0 5.0 0.00 0.00 0.00 75 1002.3
20260506220025 59 199 2.0 4.0 0.00 0.00 0.00 75 1002.1
20260506214525 59 246 2.0 4.0 0.00 0.00 0.00 75 1002.0
20260506213024 59 241 3.0 7.0 0.00 0.00 0.00 75 1002.0
20260506211525 59 232 1.0 4.0 0.00 0.00 0.00 76 1002.1
20260506210028 59 175 0.0 4.0 0.00 0.00 0.00 75 1001.9
20260506204522 59 190 2.0 4.0 0.00 0.00 0.00 75 1001.9
20260506203032 60 198 2.0 5.0 0.00 0.00 0.00 74 1001.8
20260506201521 60 195 2.0 6.0 0.00 0.00 0.00 73 1001.8
20260506200019 60 174 4.0 7.0 0.00 0.00 0.00 73 1001.8
20260506194520 60 182 2.0 6.0 0.00 0.00 0.00 73 1001.7
20260506193019 60 161 2.0 4.0 0.00 0.00 0.00 73 1001.5
20260506191521 60 148 1.0 5.0 0.00 0.00 0.00 72 1001.4
20260506190018 61 169 1.0 7.0 0.00 0.00 0.00 72 1001.2
20260506184518 61 180 4.0 7.0 0.00 0.00 0.00 71 1000.9
20260506183017 61 161 3.0 8.0 0.00 0.00 0.00 70 1000.7
20260506181516 62 153 4.0 9.0 0.00 0.00 0.00 69 1000.4
20260506180019 62 166 3.0 12.0 0.00 0.00 0.00 70 1000.2
20260506174519 62 178 4.0 13.0 0.00 0.00 0.00 69 1000.2
20260506173018 63 190 7.0 14.0 0.00 0.00 0.00 69 1000.2
20260506171515 64 169 8.0 16.0 0.00 0.00 0.00 68 1000.1
20260506170013 64 185 6.0 13.0 0.00 0.00 0.00 70 1000.2
20260506164510 65 178 5.0 14.0 0.00 0.00 0.00 67 1000.4
20260506163008 66 130 7.0 15.0 0.00 0.00 0.00 67 1000.6
20260506161507 66 166 8.0 19.0 0.00 0.00 0.00 66 1000.8
20260506160006 65 173 9.0 23.0 0.00 0.00 0.00 66 1000.8
20260506154505 65 180 5.0 16.0 0.00 0.00 0.00 66 1000.8
20260506153004 66 222 9.0 17.0 0.00 0.00 0.00 64 1000.9
20260506151503 65 152 13.0 22.0 0.00 0.00 0.00 64 1000.9
20260506150002 66 180 11.0 19.0 0.00 0.00 0.00 62 1000.9
20260506144503 67 183 10.0 26.0 0.00 0.00 0.00 62 1000.8
20260506143002 66 225 14.0 19.0 0.00 0.00 0.00 63 1000.9
20260506141600 68 178 12.0 26.0 0.00 0.00 0.00 60 1000.9
20260506140059 68 181 10.0 26.0 0.00 0.00 0.00 60 1000.8
20260506134557 68 254 12.0 27.0 0.00 0.00 0.00 58 1001.2
20260506133057 69 220 13.0 23.0 0.00 0.00 0.00 56 1001.1
20260506131602 70 278 9.0 20.0 0.00 0.00 0.00 55 1000.9
20260506130126 71 170 11.0 21.0 0.00 0.00 0.00 56 1001.0
20260506124559 70 224 13.0 24.0 0.00 0.00 0.00 54 1001.2
20260506123054 71 165 9.0 17.0 0.00 0.00 0.00 53 1000.9
20260506121555 72 167 9.0 19.0 0.00 0.00 0.00 51 1001.2
20260506120100 72 138 9.0 16.0 0.00 0.00 0.00 53 1001.2
20260506114551 72 180 6.0 19.0 0.00 0.00 0.00 55 1001.2
20260506113055 72 193 7.0 19.0 0.00 0.00 0.00 55 1001.3
20260506111548 71 186 6.0 14.0 0.00 0.00 0.00 56 1001.6
20260506110054 71 184 8.0 15.0 0.00 0.00 0.00 54 1001.9
20260506104552 69 142 7.0 14.0 0.00 0.00 0.00 55 1002.1
20260506103050 69 170 5.0 12.0 0.00 0.00 0.00 57 1002.1
20260506101555 69 176 8.0 14.0 0.00 0.00 0.00 57 1002.1
20260506100101 66 171 8.0 12.0 0.00 0.00 0.00 61 1002.4
20260506094542 66 180 8.0 14.0 0.00 0.00 0.00 60 1002.4
20260506093045 67 194 9.0 16.0 0.00 0.00 0.00 57 1002.3
20260506091540 70 158 8.0 17.0 0.00 0.00 0.00 52 1001.9
20260506090138 70 151 8.0 16.0 0.00 0.00 0.00 53 1001.8
20260506084559 70 183 11.0 21.0 0.00 0.00 0.00 50 1002.0
20260506083039 71 171 6.0 15.0 0.00 0.00 0.00 50 1002.0
20260506081541 70 238 6.0 13.0 0.00 0.00 0.00 52 1001.8